GW3137 Weather Reports


time (UTC)temp
F
wind
direction
speed
knots
gust
knots
rain 1hr
in
rain 24hr
in
rain mn
in
humidity
%
barometer
mb
20260901103704 60 24 0.0 0.0 0.00 0.00 0.00 83 1008.9
20260901103204 60 24 0.0 0.0 0.00 0.00 0.00 84 1008.8
20260901100705 60 24 0.0 0.0 0.00 0.00 0.00 83 1008.8
20260901100204 60 24 0.0 0.0 0.00 0.00 0.00 82 1008.6
20260901093704 62 24 0.0 0.0 0.00 0.00 0.00 81 1008.5
20260901090704 61 24 0.0 0.0 0.00 0.00 0.00 81 1008.5
20260901090204 62 24 0.0 0.0 0.00 0.00 0.00 80 1008.5
20260901083703 63 24 0.0 0.0 0.00 0.00 0.00 79 1008.4
20260901083204 63 24 0.0 0.0 0.00 0.00 0.00 78 1008.4
20260901080204 63 24 0.0 2.6 0.00 0.00 0.00 77 1008.1
20260901073704 64 24 0.9 2.6 0.00 0.00 0.00 76 1008.1
20260901073204 64 26 0.9 2.6 0.00 0.00 0.00 76 1008.1
20260901070205 64 21 0.0 1.7 0.00 0.00 0.00 75 1008.1
20260901063204 64 21 0.0 2.6 0.00 0.00 0.00 74 1008.0
20260901060704 66 21 0.0 0.9 0.00 0.00 0.00 73 1008.4
20260901060204 66 21 0.9 2.6 0.00 0.00 0.00 73 1008.3
20260901053704 66 5 0.9 2.6 0.00 0.00 0.00 75 1008.4
20260901053205 66 11 0.9 4.3 0.00 0.00 0.00 74 1008.4
20260901050704 67 326 1.7 2.6 0.00 0.00 0.00 73 1008.4
20260901050204 66 351 0.0 2.6 0.00 0.00 0.00 74 1008.4
20260901043704 67 0 0.9 2.6 0.00 0.00 0.00 71 1008.5
20260901040704 68 341 0.9 2.6 0.00 0.00 0.00 70 1008.4
20260901040204 69 18 1.7 5.2 0.00 0.00 0.00 69 1008.3
20260901033204 69 326 1.7 5.2 0.00 0.00 0.00 69 1008.0
20260901030704 70 337 1.7 4.3 0.00 0.00 0.00 66 1007.8
20260901030204 70 334 0.9 6.1 0.00 0.00 0.00 65 1007.8
20260901023204 71 5 0.9 5.2 0.00 0.00 0.00 62 1007.9
20260901020703 72 335 1.7 7.0 0.00 0.00 0.00 60 1007.9
20260901020203 72 337 1.7 7.0 0.00 0.00 0.00 61 1007.9
20260901013703 73 335 0.9 4.3 0.00 0.00 0.00 59 1007.9
20260901013204 73 275 3.5 7.8 0.00 0.00 0.00 58 1007.9
20260901010703 75 325 1.7 8.7 0.00 0.00 0.00 55 1007.9
20260901010204 76 336 3.5 8.7 0.00 0.00 0.00 56 1007.9
20260901003705 77 276 1.7 5.2 0.00 0.00 0.00 51 1007.9
20260901000704 80 351 2.6 7.0 0.00 0.00 0.00 50 1008.1
20260901000204 79 315 2.6 8.7 0.00 0.00 0.00 49 1008.1
20260831230204 78 310 2.6 8.7 0.00 0.00 0.00 52 1008.7
20260831223703 80 348 3.5 10.4 0.00 0.00 0.00 49 1009.0
20260831220704 77 308 3.5 7.0 0.00 0.00 0.00 52 1009.4
20260831213704 76 269 3.5 8.7 0.00 0.00 0.00 54 1009.6
20260831213204 75 276 5.2 10.4 0.00 0.00 0.00 54 1009.7
20260831210704 76 325 1.7 7.8 0.00 0.00 0.00 55 1010.0
20260831210204 75 299 2.6 10.4 0.00 0.00 0.00 55 1010.0
20260831203704 75 290 2.6 8.7 0.00 0.00 0.00 56 1010.4
20260831203204 74 314 4.3 10.4 0.00 0.00 0.00 56 1010.5
20260831200704 74 287 2.6 7.8 0.00 0.00 0.00 59 1010.7
20260831200204 73 4 4.3 10.4 0.00 0.00 0.00 60 1010.7
20260831193203 72 310 3.5 10.4 0.00 0.00 0.00 62 1011.2
20260831190704 71 266 2.6 8.7 0.00 0.00 0.00 62 1011.6
20260831190204 70 43 2.6 10.4 0.00 0.00 0.00 64 1011.7
20260831183703 69 352 4.3 8.7 0.00 0.00 0.00 67 1012.0
20260831183204 68 309 0.9 10.4 0.00 0.00 0.00 68 1012.1
20260831180704 66 332 2.6 7.0 0.00 0.00 0.00 71 1012.4
20260831180203 66 297 1.7 7.8 0.00 0.00 0.00 71 1012.4
20260831173704 64 302 3.5 10.4 0.00 0.00 0.00 73 1012.7
20260831170203 62 350 2.6 6.1 0.00 0.00 0.00 78 1012.9
20260831163704 61 283 1.7 4.3 0.00 0.00 0.00 79 1013.2
20260831163203 61 346 0.9 5.2 0.00 0.00 0.00 80 1013.3
20260831160704 60 316 1.7 4.3 0.00 0.00 0.00 81 1013.5
20260831160204 60 332 1.7 5.2 0.00 0.00 0.00 82 1013.5
20260831153704 59 345 0.9 2.6 0.00 0.00 0.00 83 1013.7
20260831153204 59 19 2.6 6.1 0.00 0.00 0.00 84 1013.8
20260831150704 58 25 1.7 2.6 0.00 0.00 0.00 85 1013.8
20260831150203 58 10 0.9 2.6 0.00 0.00 0.00 85 1013.8
20260831143704 57 26 0.9 1.7 0.00 0.00 0.00 86 1013.7
20260831143204 57 26 0.9 1.7 0.00 0.00 0.00 86 1013.6
20260831140704 57 26 0.0 0.0 0.00 0.00 0.00 87 1013.7
20260831140204 56 26 0.0 1.7 0.00 0.00 0.00 87 1013.7
20260831133703 57 26 0.9 1.7 0.00 0.00 0.00 87 1013.5
20260831133203 57 24 0.0 2.6 0.00 0.00 0.00 87 1013.5
20260831130704 57 14 0.9 2.6 0.00 0.00 0.00 86 1013.6
20260831130204 57 355 1.7 2.6 0.00 0.00 0.00 86 1013.7
20260831123704 58 15 0.9 2.6 0.00 0.00 0.00 86 1013.8
20260831123204 58 338 1.7 7.8 0.00 0.00 0.00 86 1013.8
20260831120704 58 353 1.7 4.3 0.00 0.00 0.00 85 1014.0
20260831120204 58 347 1.7 6.1 0.00 0.00 0.00 85 1014.0
20260831113703 58 0 0.9 2.6 0.00 0.00 0.00 85 1014.3
20260831113203 58 0 1.7 2.6 0.00 0.00 0.00 84 1014.3
20260831110704 58 355 0.9 2.6 0.00 0.00 0.00 83 1014.4
20260831110203 58 355 0.9 4.3 0.00 0.00 0.00 83 1014.5